Showing default

WARATAH SEED-1, 60469

Orbit data source: Space-Track

WARATAH SEED-1, 60469 is a payload satellite owned by U Sydney (AU) in SSO that was launched on Fri, 16 Aug 2024 UTC via an FALCON 9 launch vehicle from the Air Force Western Test Range (AFWTR). Payload-class satellites include a variety of spacecraft equipped with specific instruments for various scientific and technological missions. These include communications satellites like Starlink; space stations such as the ISS; scientific satellites like the Hubble; Earth observation satellites from companies like Planet Labs, Umbra, and HawkEye 360; GPS; miniature CubeSats for education and research; and military/defense satellites.

Loading next visibility...
Identifier
60469, 2024-149B
Orbit
SSO
Country
Flag of AUAU / AUS
Related business
Manufacturer
U Sydney
Mission
Operational Amateur Technology
Bus & Motor
CUBESAT 6U, Unknown motor
Mass
10 kg wet, 10 kg dry
Launch date (UTC)
2024-08-16 (2 years ago)
Launch vehicle
FALCON 9
Launch site
Air Force Western Test Range (AFWTR)
Object type
Payload
Rocket body
Debris
Shape & HBR
Box, 0.1 m
Radar Cross Section
0.080 m², Medium (>0.1 m² and < 1m²)

Expand to show TLE details & history
Last TLE update: 22 hours ago

TLE from 22 hours ago
0 WARATAH SEED-1
1 60469U 24149B   26170.91243996  .00011134  00000-0  31982-3 0  9990
2 60469  97.3686 251.4895 0001740 169.9542 190.1737 15.36001503102531
Epoch: 2026-06-19T21:53Z
TLE epoch observation values (Epoch: 2026-06-19T21:53:54.812Z)
Latitude
-0.00003°
Longitude
14.87651°
Altitude
462.231 km
Speed
7.635 km/s
True Right ascension
16h 45m 57s
True Declination
0° 00' 00"
Sunlit
Object was in full shadow at epoch
Visualization orbit readout
Latitude
Unknown
Longitude
Unknown
Altitude
Unknown
Speed
Unknown
Apparent Right ascension
Unknown
Apparent Declination
Unknown
Sunlit
N/A
Visualization observer readout
Local Sidereal Time
07:18:54
Azimuth
Unknown
Elevation
Unknown
Doppler factor
Unknown
Orbital elements
Apogee altitude
456.079 km
Perigee altitude
453.701 km
Semi-major axis
6,833.027 km
Eccentricity
0.00017
Inclination
97.3686°
RAAN
251.4895°
Arg. of periapsis
169.9542°
True anomaly
190.17018°
Mean anomaly
190.1737°
Eccentric anomaly
190.17194°
Mean motion
3.84258 °/min
Orbital period
93.69 mins
BSTAR
0.00031982
Loading maneuver chart data...
Computing Atmospheric mass density...
Loading historical data...
Loading historical data...
Loading historical data...
Loading historical data...
Loading historical data...
Loading historical data...
Loading historical data...

Documentation

Showing up to 5 results
|